Simultaneous Nadir Overpasses (SNOs) Predictions

Prediction of SNOs between NOAA-15 and METOP-C Satellite Orbit:

Table of predicted SNOs for the next 14.0 days since TLE Epoch: 10/22/2024
Index Date (NOAA-15) Time (NOAA-15) Lat,Lon (NOAA-15) SZA (NOAA-15 ) Date (METOP-C) Time (METOP-C) Lat,Lon (METOP-C) SZA (METOP-C ) Distance(km) Time Diff (sec)
1 11/05/2024 11:10:28 -81.02,-129.55 80.87 11/05/2024 11:09:22 -81.04,-129.55 80.89 1.70 66
2 11/05/2024 12:00:58 81.04, 37.53 99.12 11/05/2024 12:00:03 81.02, 37.40 99.08 2.79 55
3 11/05/2024 12:51:28 -81.04,-155.12 80.87 11/05/2024 12:50:44 -81.03,-155.05 80.89 1.59 44
4 11/05/2024 13:41:57 81.03, 12.32 99.15 11/05/2024 13:41:24 81.03, 12.28 99.13 0.97 33
5 11/05/2024 14:32:27 -81.03, 179.67 80.85 11/05/2024 14:32:05 -81.04, 179.83 80.84 2.81 22
6 11/05/2024 15:22:56 81.03, -12.88 99.17 11/05/2024 15:22:45 81.04, -12.85 99.17 0.92 11
7 11/05/2024 16:13:26 -81.03, 154.46 80.83 11/05/2024 16:13:27 -81.03, 154.34 80.84 2.18 1
8 11/05/2024 17:03:56 81.05, -38.44 99.17 11/05/2024 17:04:07 81.03, -38.34 99.18 2.44 11
9 11/05/2024 17:54:25 -81.03, 129.26 80.80 11/05/2024 17:54:48 -81.04, 129.22 80.79 1.38 23
10 11/05/2024 18:44:55 81.04, -63.64 99.20 11/05/2024 18:45:28 81.04, -63.47 99.22 3.12 33
11 11/05/2024 19:35:25 -81.05, 103.69 80.80 11/05/2024 19:36:10 -81.03, 103.72 80.79 1.48 45
12 11/05/2024 20:25:54 81.04, -88.84 99.22 11/05/2024 20:26:50 81.03, -88.96 99.23 2.19 56
13 11/05/2024 21:16:24 -81.04, 78.48 80.78 11/05/2024 21:17:31 -81.04, 78.60 80.74 2.03 67



Historial Predications of SNOs between NOAA-15 and METOP-C
